Regional Weather Roundup
Issued by NWS

Home | Current Version | Previous Version | Text Only | Print | Product List | Glossary Off
Versions: 1 2 3 4 5 6 7 8 9 10 11 12 13 14 15 16 17 18 19 20 21 22 23 24 25 26 27 28 29 30 31 32 33 34 35 36 37 38 39 40 41 42 43 44 45 46 47 48 49 50

525
ASUS43 KBIS 201602
RWRND

NORTH DAKOTA REGIONAL WEATHER ROUNDUP
NATIONAL WEATHER SERVICE BISMARCK ND
1100 AM CDT SUN AUG 20 2017

NOTE: "FAIR" INDICATES FEW OR NO CLOUDS BELOW 12,000 FEET WITH NO
SIGNIFICANT WEATHER AND/OR OBSTRUCTIONS TO VISIBILITY.


NDZ001>003-009>011-017-201700-
NORTHWEST NORTH DAKOTA

CITY           SKY/WX    TMP DP  RH WIND       PRES   REMARKS
WILLISTON      SUNNY     65  42  43 CALM      30.09S
MINOT          MOSUNNY   70  43  37 W5        30.06R
MINOT AFB      CLOUDY    69  41  36 W8        30.05R
$$

NDZ018>021-031>035-040>046-201700-
SOUTHWEST NORTH DAKOTA

CITY           SKY/WX    TMP DP  RH WIND       PRES   REMARKS
BISMARCK       CLOUDY    67  46  47 NW7       30.08R
DICKINSON      CLOUDY    60  45  57 VRB3      30.09S
GARRISON         N/A     66  42  41 N5        30.07S
HETTINGER ARPT MOSUNNY   65  42  43 E13       30.11S
$$

NDZ004>008-012>016-024-026-027-054-201700-
NORTHEAST NORTH DAKOTA

CITY           SKY/WX    TMP DP  RH WIND       PRES   REMARKS
GRAND FORKS    CLOUDY    72  51  47 NW9       29.97R
GRND FRKS AFB  MOSUNNY   71  48  43 NW9       29.98R
DEVILS LAKE    SUNNY     67  47  48 NW13      30.03R
$$

NDZ022-023-025-028>030-036>039-047>053-201700-
SOUTHEAST NORTH DAKOTA

CITY           SKY/WX    TMP DP  RH WIND       PRES   REMARKS
FARGO          CLOUDY    69  53  56 NW15      29.97S
JAMESTOWN      PTSUNNY   63  51  65 NW8       30.03S
$$





USA.gov is the U.S. government's official web portal to all federal, state and local government web resources and services.